Weather History for Clinton, AR

Change the Weather History Date:

Wednesday, June 26, 2013

  Actual Average (KFLP) Record (KFLP)
Temperature  
Mean Temperature 83 °F -  
Max Temperature 95 °F 85 °F 96 °F (2013)
Min Temperature 71 °F 64 °F 59 °F (2001)
Cooling Degree Days 18    
Growing Degree Days 33 (Base 50)    
Moisture  
Dew Point 75 °F    
Average Humidity 80    
Maximum Humidity 100    
Minimum Humidity 53    
Precipitation  
Precipitation 0.00 in - - ()
Sea Level Pressure  
Sea Level Pressure 29.91 in    
Wind  
Wind Speed 0 mph (North)    
Max Wind Speed 0 mph    
Max Gust Speed -    
Visibility 6 miles    
Events Rain , Thunderstorm    
Averages and records for this station are not official NWS values.
T = Trace of Precipitation, MM = Missing Value Source: NWS Daily Summary

Daily Weather History Graph

Daily Weather History Graph

Search for Another Location

Airport:

Trip Planner

Search our weather history database for the weather conditions in past years. The results will help you decide how hot, cold, wet, or windy it might be!

Date:

Astronomy

Jun. 26, 2013 Rise Set
Actual Time 5:56 AM CDT 8:29 PM CDT
Civil Twilight 5:25 AM CDT 8:59 PM CDT
Nautical Twilight 4:48 AM CDT 9:36 PM CDT
Astronomical Twilight 4:07 AM CDT 10:17 PM CDT
Moon 11:02 PM CDT (6/26) 9:40 AM CDT (6/26)
Length of Visible Light 15h 33m
Length of Day
14h 33m
Waning Gibbous, 85% of the Moon is Illuminated
Jun 26
Waning Gibbous
Jun 29
Last Quarter
Jul 8
New
Jul 15
First Quarter
Jul 22
Full

Hourly Weather History & Observations

Time (CDT) Temp. Heat Index Dew Point Humidity Pressure Visibility Wind Dir Wind Speed Gust Speed Precip Events Conditions
12:15 AM 78.8 °F - 73.4 °F 83% 29.93 in 10.0 mi Calm Calm - N/A   Clear
12:35 AM 77.0 °F - 73.4 °F 89% 29.93 in 8.0 mi Calm Calm - N/A   Clear
12:55 AM 75.2 °F - 73.4 °F 94% 29.93 in 8.0 mi Calm Calm - N/A   Clear
1:15 AM 75.2 °F - 73.4 °F 94% 29.93 in 8.0 mi Calm Calm - N/A   Clear
1:35 AM 73.4 °F - 73.4 °F 100% 29.93 in 7.0 mi Calm Calm - N/A   Clear
1:55 AM 73.4 °F - 73.4 °F 100% 29.92 in 5.0 mi Calm Calm - N/A   Clear
2:15 AM 73.4 °F - 71.6 °F 94% 29.92 in 4.0 mi Calm Calm - N/A   Clear
2:35 AM 73.4 °F - 73.4 °F 100% 29.91 in 3.0 mi Calm Calm - N/A   Clear
2:55 AM 73.4 °F - 71.6 °F 94% 29.91 in 5.0 mi Calm Calm - N/A   Clear
3:15 AM 73.4 °F - 71.6 °F 94% 29.91 in 5.0 mi Calm Calm - N/A   Clear
3:35 AM 71.6 °F - 71.6 °F 100% 29.90 in 5.0 mi Calm Calm - N/A   Clear
3:55 AM 71.6 °F - 71.6 °F 100% 29.90 in 5.0 mi Calm Calm - N/A   Clear
4:15 AM 71.6 °F - 71.6 °F 100% 29.91 in 5.0 mi Calm Calm - N/A   Clear
4:35 AM 71.6 °F - 71.6 °F 100% 29.91 in 5.0 mi Calm Calm - N/A   Clear
4:55 AM 71.6 °F - 71.6 °F 100% 29.92 in 5.0 mi Calm Calm - N/A   Clear
5:15 AM 71.6 °F - 71.6 °F 100% 29.92 in 5.0 mi Calm Calm - N/A   Clear
5:35 AM 71.6 °F - 71.6 °F 100% 29.92 in 5.0 mi Calm Calm - N/A   Clear
5:55 AM 71.6 °F - 71.6 °F 100% 29.93 in 5.0 mi Calm Calm - N/A   Clear
6:15 AM 71.6 °F - 71.6 °F 100% 29.93 in 5.0 mi Calm Calm - N/A   Clear
6:35 AM 71.6 °F - 71.6 °F 100% 29.93 in 3.0 mi Calm Calm - N/A   Clear
6:55 AM 71.6 °F - 71.6 °F 100% 29.94 in 5.0 mi Calm Calm - N/A   Clear
7:15 AM 73.4 °F - 71.6 °F 94% 29.94 in 5.0 mi Calm Calm - N/A   Clear
7:35 AM 75.2 °F - 73.4 °F 94% 29.94 in 4.0 mi Calm Calm - N/A   Clear
7:55 AM 77.0 °F - 73.4 °F 89% 29.94 in 5.0 mi Calm Calm - N/A   Clear
8:15 AM 78.8 °F - 73.4 °F 83% 29.94 in 2.0 mi Calm Calm - N/A   Haze
8:35 AM 80.6 °F 86.2 °F 75.2 °F 84% 29.95 in 2.5 mi Calm Calm - N/A   Haze
8:55 AM 82.4 °F 89.5 °F 75.2 °F 79% 29.94 in 5.0 mi Calm Calm - N/A   Haze
9:15 AM 84.2 °F 92.3 °F 75.2 °F 74% 29.95 in 8.0 mi Calm Calm - N/A   Partly Cloudy
9:55 AM 84.2 °F 90.9 °F 73.4 °F 70% 29.94 in 7.0 mi Calm Calm - N/A   Partly Cloudy
10:15 AM 86.0 °F 93.4 °F 73.4 °F 66% 29.94 in 8.0 mi Calm Calm - N/A   Clear
10:35 AM 87.8 °F 95.6 °F 73.4 °F 62% 29.93 in 7.0 mi Calm Calm - N/A   Clear
10:55 AM 87.8 °F 95.6 °F 73.4 °F 62% 29.93 in 8.0 mi Calm Calm - N/A   Clear
11:15 AM 87.8 °F 93.8 °F 71.6 °F 58% 29.93 in 8.0 mi Calm Calm - N/A   Partly Cloudy
11:35 AM 87.8 °F 93.8 °F 71.6 °F 58% 29.93 in 7.0 mi Calm Calm - N/A   Partly Cloudy
11:55 AM 87.8 °F 93.8 °F 71.6 °F 58% 29.93 in 7.0 mi Calm Calm - N/A   Partly Cloudy
12:15 PM 87.8 °F 93.8 °F 71.6 °F 58% 29.94 in 8.0 mi Calm Calm - N/A Rain Light Rain
12:35 PM 82.4 °F 88.2 °F 73.4 °F 74% 29.93 in 3.0 mi Calm Calm - N/A Thunderstorm Unknown
12:55 PM 84.2 °F 90.9 °F 73.4 °F 70% 29.93 in 7.0 mi Calm Calm - N/A   Partly Cloudy
1:15 PM 80.6 °F 87.1 °F 77.0 °F 89% 29.93 in 7.0 mi Calm Calm - N/A   Scattered Clouds
1:35 PM 84.2 °F 96.1 °F 78.8 °F 84% 29.93 in 7.0 mi Calm Calm - N/A   Partly Cloudy
1:55 PM 86.0 °F 96.9 °F 77.0 °F 74% 29.92 in 7.0 mi Calm Calm - N/A   Partly Cloudy
2:15 PM 91.4 °F 102.5 °F 75.2 °F 59% 29.91 in 7.0 mi Calm Calm - N/A   Clear
2:35 PM 91.4 °F 102.5 °F 75.2 °F 59% 29.90 in 8.0 mi Calm Calm - N/A   Clear
2:55 PM 93.2 °F 105.0 °F 75.2 °F 56% 29.89 in 7.0 mi Calm Calm - N/A   Clear
3:15 PM 93.2 °F 105.0 °F 75.2 °F 56% 29.89 in 7.0 mi Calm Calm - N/A   Clear
3:35 PM 95.0 °F 107.4 °F 75.2 °F 53% 29.89 in 8.0 mi Calm Calm - N/A   Clear
3:55 PM 95.0 °F 107.4 °F 75.2 °F 53% 29.88 in 8.0 mi Calm Calm - N/A   Clear
4:15 PM 95.0 °F 107.4 °F 75.2 °F 53% 29.88 in 8.0 mi Calm Calm - N/A   Clear
4:35 PM 95.0 °F 107.4 °F 75.2 °F 53% 29.87 in 8.0 mi Calm Calm - N/A   Clear
4:55 PM 93.2 °F 107.2 °F 77.0 °F 59% 29.86 in 7.0 mi Calm Calm - N/A   Clear
5:15 PM 95.0 °F 109.7 °F 77.0 °F 56% 29.86 in 8.0 mi Calm Calm - N/A   Clear
5:35 PM 93.2 °F 107.2 °F 77.0 °F 59% 29.85 in 8.0 mi Calm Calm - N/A   Clear
5:55 PM 93.2 °F 105.0 °F 75.2 °F 56% 29.85 in 7.0 mi Calm Calm - N/A   Clear
6:15 PM 93.2 °F 105.0 °F 75.2 °F 56% 29.84 in 8.0 mi Calm Calm - N/A   Clear
6:35 PM 93.2 °F 107.2 °F 77.0 °F 59% 29.84 in 8.0 mi Calm Calm - N/A   Clear
6:55 PM 93.2 °F 105.0 °F 75.2 °F 56% 29.85 in 8.0 mi Calm Calm - N/A   Clear
7:15 PM 91.4 °F 107.2 °F 78.8 °F 66% 29.85 in 8.0 mi Calm Calm - N/A   Clear
7:35 PM 91.4 °F 107.2 °F 78.8 °F 66% 29.87 in 7.0 mi Calm Calm - N/A   Clear
7:55 PM 89.6 °F 104.7 °F 78.8 °F 70% 29.88 in 7.0 mi Calm Calm - N/A   Clear
8:15 PM 86.0 °F 101.9 °F 80.6 °F 84% 29.88 in 7.0 mi Calm Calm - N/A   Clear
8:35 PM 84.2 °F 98.3 °F 80.6 °F 89% 29.88 in 9.0 mi Calm Calm - N/A   Clear
8:55 PM 84.2 °F 96.1 °F 78.8 °F 84% 29.88 in 8.0 mi Calm Calm - N/A   Clear
9:15 PM 82.4 °F 92.4 °F 78.8 °F 89% 29.88 in 8.0 mi Calm Calm - N/A   Clear
9:35 PM 82.4 °F 92.4 °F 78.8 °F 89% 29.89 in 8.0 mi Calm Calm - N/A   Clear
9:55 PM 82.4 °F 92.4 °F 78.8 °F 89% 29.89 in 8.0 mi Calm Calm - N/A   Clear
10:15 PM 80.6 °F 88.1 °F 78.8 °F 94% 29.90 in 7.0 mi Calm Calm - N/A   Clear
10:35 PM 80.6 °F 88.1 °F 78.8 °F 94% 29.90 in 7.0 mi Calm Calm - N/A   Clear
10:55 PM 78.8 °F - 78.8 °F 100% 29.91 in 6.0 mi Calm Calm - N/A   Clear
11:15 PM 78.8 °F - 78.8 °F 100% 29.91 in 6.0 mi Calm Calm - N/A   Clear
11:35 PM 78.8 °F - 77.0 °F 94% 29.92 in 5.0 mi Calm Calm - N/A   Clear
11:55 PM 78.8 °F - 77.0 °F 94% 29.92 in 5.0 mi Calm Calm - N/A   Clear